Location: Lanoux
(43.1180°N, 1.4255°E)
Time: 15:02:16
(UTC+00:00)

ARIANE 6 FM1 Upper Stage - Pass Details

Date: 20 February 2026
Orbit: 523 x 607 km, 62.0° (Epoch: 6 March)

Event Time Altitude Azimuth Distance (km) Brightness Sun altitude
Rises 19:16:40 0° 307° (NW) 2,657 7.0 -19.8°
Reaches altitude 10° 19:19:17 10° 290° (WNW) 1,767 6.3 -20.3°
Maximum altitude 19:22:11 20° 243° (WSW) 1,270 5.1 -20.8°
Drops below altitude 10° 19:25:05 10° 196° (SSW) 1,775 5.3 -21.3°
Sets 19:27:44 0° 179° (S) 2,673 6.1 -21.8°
Enters shadow 19:27:45 - 179° (S) 2,682 6.1 -21.8°
